Regional Weather Roundup
Issued by NWS

Home | Current Version | Previous Version | Text Only | Print | Product List | Glossary On
Versions: 1 2 3 4 5 6 7 8 9 10 11 12 13 14 15 16 17 18 19 20 21 22 23 24 25 26 27 28 29 30 31 32 33 34 35 36 37 38 39 40 41 42 43 44 45 46 47 48 49 50
000
ASUS43 KDMX 022006
RWRIA

WEATHER ROUNDUP FOR IOWA
NATIONAL WEATHER SERVICE DES MOINES IA
200 PM CST FRI DEC 02 2016

NOTE: "FAIR" INDICATES FEW OR NO CLOUDS BELOW 12,000 FEET WITH NO
SIGNIFICANT WEATHER AND/OR OBSTRUCTIONS TO VISIBILITY.

* - THESE STATIONS ARE NOT NWS STATIONS...THUS NOT UNDER NWS
QUALITY CONTROL.  THEY ALSO DO NOT REPORT WEATHER SUCH
AS PRECIPITATION OR FOG.

IAZ001>003-012>014-020>022-031>034-043>046-022100-
   NORTHWEST IOWA

CITY           SKY/WX    TMP DP  RH WIND       PRES   REMARKS
CARROLL *      MIX PCPN  36  36 100 N7        30.28R WCI  30
CHEROKEE *     CLOUDY    35  29  79 N6        30.28R WCI  30
DENISON *      CLOUDY    37  32  81 W8        30.27R WCI  31
LE MARS *      CLOUDY    36  30  80 N5        30.29R WCI  32
ORANGE CITY *  CLOUDY    34  30  86 CALM      30.27R
SHELDON *      CLOUDY    34  27  75 NW7       30.25R WCI  28
SIOUX CITY     CLOUDY    39  30  70 VRB3      30.29R
SPENCER        CLOUDY    34  24  67 NW16      30.26S WCI  24
STORM LAKE *     N/A     34  28  80 N7        30.26R WCI  28
$$

IAZ055>058-069>071-079>083-090>094-022100-
   SOUTHWEST IOWA

CITY           SKY/WX    TMP DP  RH WIND       PRES   REMARKS
ATLANTIC *     CLOUDY    37  30  75 W7        30.29S WCI  32
AUDUBON *      CLOUDY    37  30  75 W5        30.29S WCI  34
CLARINDA *       N/A     43  32  65 NW7         N/A
COUNCIL BLFS * PTSUNNY   39  30  70 NW6       30.27F WCI  35
CRESTON *      PTSUNNY   41  30  65 NW12      30.26F
HARLAN  *      CLOUDY    37  30  75 W9        30.32S WCI  31
LAMONI         MOSUNNY   45  31  58 N8        30.24F
RED OAK *      MOSUNNY   41  30  65 VRB5      30.27F
SHENANDOAH *   MOSUNNY   43  32  65 W6        30.28F
$$

IAZ047>049-059>061-072>074-084-022100-
   CENTRAL IOWA

CITY           SKY/WX    TMP DP  RH WIND       PRES   REMARKS
AMES           CLOUDY    37  32  82 NW5       30.28R WCI  33
ANKENY *       CLOUDY    39  34  81 CALM      30.29R
BOONE *        CLOUDY    36  32  87 N5        30.26R WCI  32
CHARITON *       N/A     41  30  65 W8        30.26S
DES MOINES     CLOUDY    41  31  67 W6        30.28R
GRINNELL*      CLOUDY    38  30  72 NW7       30.27R WCI  33
KNOXVILLE *    CLOUDY    39  30  70 W7        30.26S WCI  34
MARSHALLTOWN   CLOUDY    37  29  72 NW8       30.26R WCI  31
NEWTON *       CLOUDY    37  30  75 NW7       30.26R WCI  32
PELLA *        CLOUDY    39  32  75 W7        30.28S WCI  34
PERRY *        CLOUDY    39  34  80 W7        30.28R WCI  34
$$

IAZ004>006-015-016-023>025-035-036-022100-
   NORTH CENTRAL IOWA

CITY           SKY/WX    TMP DP  RH WIND       PRES   REMARKS
ALGONA *       CLOUDY    34  27  75 NW12      30.25S WCI  25
CLARION *      CLOUDY    34  28  80 N12       30.25R WCI  25
ESTHERVILLE    CLOUDY    31  25  78 NW10      30.25S WCI  22
FORT DODGE *   CLOUDY    36  28  75 NW8       30.27R WCI  29
MASON CITY     CLOUDY    31  23  72 NW9       30.26S WCI  23
FOREST CITY *  CLOUDY    32  27  80 NW9       30.25R WCI  24
WEBSTER CITY * CLOUDY    37  30  75 NW12      30.24R WCI  30
IOWA FALLS *   CLOUDY    35  29  78 N9        30.26R WCI  28
$$

IAZ007>011-017>019-026>030-037>042-050>054-066-022100-
   NORTHEAST IOWA

CITY           SKY/WX    TMP DP  RH WIND       PRES   REMARKS
CEDAR RAPIDS   CLOUDY    36  29  75 NW12      30.24R WCI  28
CHARLES CITY * CLOUDY    32  27  80 NW10      30.25R WCI  24
CLINTON *      CLOUDY    38  30  73 NW16      30.23R WCI  29
DECORAH *      CLOUDY    32  23  69 NW10      30.22S WCI  24
DUBUQUE        CLOUDY    34  25  69 W12       30.22S WCI  25
MONTICELLO *   CLOUDY    36  27  69 NW8G15    30.24R WCI  29
OELWEIN *      CLOUDY    32  27  80 NW13      30.24S WCI  22
WATERLOO       CLOUDY    33  24  69 NW16      30.25S WCI  23
$$

IAZ064-065-067-068-078-022100-
   EAST CENTRAL IOWA

CITY           SKY/WX    TMP DP  RH WIND       PRES   REMARKS
DAVENPORT      CLOUDY    38  28  67 NW14      30.24R WCI  30
IOWA CITY      CLOUDY    39  27  62 NW15      30.27R WCI  31
MUSCATINE *    CLOUDY    41  28  60 NW12G18   30.26R
QUAD CITIES    CLOUDY    40  27  59 NW12      30.23R WCI  33
$$

IAZ062-063-075>077-085>089-095>099-022100-
   SOUTHEAST IOWA

CITY           SKY/WX    TMP DP  RH WIND       PRES   REMARKS
BURLINGTON     CLOUDY    41  31  67 NW10      30.25R
FAIRFIELD *    CLOUDY    41  30  65 NW8       30.26R
FORT MADISON * CLOUDY    43  32  65 NW9       30.26S
KEOKUK *       CLOUDY    45  30  57 NW7       30.25S
OSKALOOSA *    CLOUDY    40  31  71 NW5       30.27R
CENTERVILLE *  CLOUDY    41  30  65 NW9       30.27R
OTTUMWA        CLOUDY    42  30  62 NW9       30.26R
WASHINGTON *   CLOUDY    39  30  70 NW14      30.27S WCI  31
$$

ABBREVIATIONS USED IN REMARKS
   TC - TEMPERATURES IN CELSIUS
  WCI - WIND CHILL INDEX
   HX - HEAT INDEX
  VSB - VISIBILITY
$$




USA.gov is the U.S. government's official web portal to all federal, state and local government web resources and services.